Location: Austin
(30.3000°N, 97.7500°W)
Time: 00:54:33
(UTC-05:00)

Envisat - Visible Passes

Search period start: 19 April 2026 00:00
Search period end: 29 April 2026 00:00
Orbit: 761 x 762 km, 98.4° (Epoch: 18 April)

Date Brightness Start Highest point End Pass type
(mag) Time Alt. Az. Time Alt. Az. Time Alt. Az.
19 Apr 4.7 03:53:49 10° NNE 03:56:16 29° NNE 03:56:16 29° NNE visible
20 Apr 5.5 03:16:43 10° NE 03:18:06 17° NE 03:18:06 17° NE visible
20 Apr 4.5 04:55:37 10° NNW 04:58:14 22° NW 04:58:14 22° NW visible
21 Apr 4.2 04:17:08 10° N 04:20:05 35° N 04:20:05 35° N visible
22 Apr 4.9 03:39:28 10° NNE 03:41:54 27° NE 03:41:54 27° NE visible
22 Apr 4.9 05:20:03 10° NNW 05:22:02 14° WNW 05:22:02 14° WNW visible
23 Apr 5.7 03:02:51 10° NE 03:03:44 13° ENE 03:03:44 13° ENE visible
23 Apr 4.2 04:40:45 10° N 04:43:53 30° NW 04:43:53 30° NW visible
24 Apr 4.1 04:02:36 10° NNE 04:05:43 39° NNE 04:05:43 39° NNE visible
25 Apr 5.1 03:25:15 10° NNE 03:27:32 23° NE 03:27:32 23° NE visible
25 Apr 4.5 05:04:45 10° NNW 05:07:40 20° NW 05:07:40 20° NW visible
26 Apr 3.9 04:26:02 10° N 04:29:30 39° NNW 04:29:30 39° NNW visible
27 Apr 4.3 03:48:10 10° NNE 03:51:19 37° NE 03:51:19 37° NE visible
27 Apr 5.0 05:29:44 10° NW 05:31:27 12° WNW 05:31:27 12° WNW visible
28 Apr 5.3 03:11:14 10° NE 03:13:09 18° ENE 03:13:09 18° ENE visible
28 Apr 4.2 04:49:46 10° NNW 04:53:16 28° NW 04:53:16 28° NW visible
